Location: Allaines
(49.9632°N, 2.9458°E)
Time: 01:55:29
(UTC+00:00)

Cosmos 2082 Rocket - Pass Details

Date: 09 April 2020
Orbit: 831 x 855 km, 71.0° (Epoch: 03 June)

Event Time Altitude Azimuth Distance (km) Brightness Sun altitude
Exits shadow 20:33:29 13° 74° (ENE) 2,247 4.1 -18.1°
Drops below altitude 10° 20:34:39 10° 63° (ENE) 2,464 4.4 -18.3°
Sets 20:38:05 0° 42° (NE) 3,410 5.3 -18.7°
